Location: Mannheim
(49.4880°N, 8.4650°E)
Time: 09:17:44
(UTC+01:00)

ISS - Pass Details

Date: 26 November 2022
Orbit: 411 x 420 km, 51.6° (Epoch: 30 November)

Event Time Altitude Azimuth Distance (km) Brightness Sun altitude
Rises 18:37:53 0° 274° (W) 2,347 1.5 -19.7°
Reaches altitude 10° 18:40:00 10° 279° (W) 1,484 0.1 -20.0°
Enters shadow 18:43:02 54° 337° (NNW) 505 -3.4 -20.5°
